Content
SEND FEEDBACK

Daily
Averages
Monthly
Summary
United States of America

INARAJAN, GUAM


Home > North America > United States > Guam
Elevation: 280 feet     Latitude: 13 18N     Longitude: 144 44E

WEATHER
 
SELECT A DAY
Number of Records: 341,631;   Date Range: 1/1/95 - 7/20/14
 
SHARE

PRINT THIS DATA

[ ← Previous Day ]
WEATHER ALMANAC - JULY 11, 2013
[ Next Day → ]
[ °C ]   °F
Weather ElementAverageHighLow
Temperature80.9 °F86.5 °F (11:55 am) (3:55 pm)
Dewpoint76 °F80.6 °F (12:16 pm) (7:00 pm)
Humidity84.9 %94 % (9:44 pm)77 % (2:55 pm)
Barometer29.16 in29.90 in (10:55 pm) (7:00 pm)
Wind Speed11.1 mph15 mph (12:55 pm)
Wind Gust18.4 mph (2:55 pm)
Weather ElementAverage
Visibility10 mi
Wind DirectionENE (70.7 °)

Weather ElementTotal
Precipitation---
Heating Degree Days21.8 (Base 65)
Averaged from 44 records on July 11, 2013
WEATHER CONDITIONS BREAKOUT
WIND DIRECTION BREAKOUT
WEATHER BY HOUR - JULY 11, 2013
[ °C ]   °F
Local TimeTemperatureDewpointHumidityBarometerVisibilityWind DirectionWind SpeedGust SpeedPrecipitationEventsConditions
1:55 AM80.4 °F76.1 °F87 %29.80 in10.0 miESE (110°)9.2 mphClear
2:55 AM80.2 °F76.3 °F88 %29.79 in10.0 miEast (100°)8.1 mphScattered Clouds
3:55 AM80.1 °F76.3 °F88 %29.80 in10.0 miEast (100°)8.1 mphPartly Cloudy
4:55 AM79.9 °F76.1 °F88 %29.80 in10.0 miEast (90°)9.2 mphPartly Cloudy
5:49 AM80.6 °F77.0 °F89 %29.81 in10.0 miEast (80°)8.1 mphMostly Cloudy
5:55 AM80.1 °F76.5 °F89 %29.81 in10.0 miEast (80°)6.9 mphMostly Cloudy
5:56 AM80.6 °F77.0 °F89 %29.81 in10.0 miEast (80°)6.9 mphMostly Cloudy
6:55 AM81.1 °F76.5 °F86 %29.83 in10.0 miEast (90°)6.9 mphPartly Cloudy
7:55 AM84.0 °F77.5 °F81 %29.83 in10.0 miEast (100°)9.2 mphScattered Clouds
8:55 AM83.5 °F77.4 °F82 %29.84 in10.0 miEast (90°)10.4 mphScattered Clouds
9:55 AM84.4 °F78.4 °F82 %29.84 in10.0 miEast (80°)10.4 mphScattered Clouds
10:00 AM84.2 °F78.8 °F84 %29.84 in10.0 miEast (80°)12.7 mphMostly Cloudy
10:49 AM86.0 °F78.8 °F79 %29.83 in10.0 miENE (70°)10.4 mphScattered Clouds
10:55 AM85.6 °F79.0 °F80 %29.83 in10.0 miENE (60°)10.4 mphScattered Clouds
11:55 AM86.5 °F79.7 °F80 %29.82 in10.0 miENE (70°)12.7 mphScattered Clouds
12:00 PM86.0 °F78.8 °F79 %29.82 in10.0 miENE (70°)11.5 mphMostly Cloudy
12:04 PM86.0 °F78.8 °F79 %29.82 in10.0 miENE (60°)12.7 mphScattered Clouds
12:16 PM86.0 °F80.6 °F84 %29.81 in10.0 miEast (80°)13.8 mphMostly Cloudy
12:22 PM86.0 °F78.8 °F79 %29.81 in10.0 miENE (70°)12.7 mphMostly Cloudy
12:55 PM86.2 °F79.0 °F79 %29.81 in10.0 miENE (70°)15.0 mphScattered Clouds
1:55 PM86.0 °F79.2 °F80 %29.80 in10.0 miENE (60°)13.8 mphPartly Cloudy
2:18 PM86.0 °F78.8 °F79 %29.80 in10.0 miENE (60°)11.5 mphMostly Cloudy
2:25 PM86.0 °F78.8 °F79 %29.80 in10.0 miENE (60°)11.5 mphScattered Clouds
2:26 PM86.0 °F78.8 °F79 %29.80 in10.0 miENE (70°)11.5 mphMostly Cloudy
2:28 PM86.0 °F78.8 °F79 %29.80 in10.0 miENE (70°)12.7 mphScattered Clouds
2:55 PM85.6 °F77.5 °F77 %29.79 in10.0 miENE (60°)13.8 mph18.4 mphPartly Cloudy
3:55 PM0.0 °F0.0 °FNorth
4:55 PM84.2 °F77.5 °F80 %29.82 in10.0 miENE (60°)11.5 mph
5:55 PM82.9 °F77.7 °F84 %29.84 in10.0 miEast (80°)10.4 mphPartly Cloudy
6:55 PM81.3 °F77.0 °F87 %29.86 in10.0 miENE (70°)10.4 mphPartly Cloudy
7:55 PM81.1 °F77.9 °F90 %29.87 in10.0 miEast (80°)15.0 mphPartly Cloudy
8:55 PM81.0 °F77.7 °F90 %29.89 in10.0 miENE (70°)11.5 mphPartly Cloudy
9:11 PM80.6 °F77.0 °F89 %29.89 in10.0 miENE (60°)13.8 mphMostly Cloudy
9:15 PM80.6 °F77.0 °F89 %29.89 in10.0 miENE (70°)12.7 mphScattered Clouds
9:16 PM80.6 °F77.0 °F89 %29.89 in10.0 miENE (60°)10.4 mphMostly Cloudy
9:21 PM80.6 °F77.0 °F89 %29.89 in10.0 miENE (60°)12.7 mphScattered Clouds
9:30 PM80.6 °F77.0 °F89 %29.89 in10.0 miENE (60°)11.5 mphMostly Cloudy
9:35 PM80.6 °F77.0 °F89 %29.89 in10.0 miENE (60°)11.5 mphRainLight Rain
9:44 PM80.6 °F78.8 °F94 %29.89 in10.0 miEast (80°)15.0 mphScattered Clouds
9:55 PM80.6 °F77.9 °F91 %29.89 in10.0 miENE (70°)11.5 mph0.00 inPartly Cloudy
10:55 PM80.4 °F76.6 °F88 %29.90 in10.0 miENE (60°)10.4 mphScattered Clouds
11:11 PM80.6 °F77.0 °F89 %29.89 in10.0 miENE (60°)11.5 mphMostly Cloudy
11:54 PM80.6 °F77.0 °F89 %29.89 in10.0 miNE (50°)9.2 mphScattered Clouds
11:55 PM80.8 °F77.0 °F88 %29.89 in10.0 miNE (50°)8.1 mphScattered Clouds
Hourly data recorded from PGUA, located miles away from Inarajan, Guam







STORIES FROM OUR PARTNERS